This demonstration page uses our WeatherBlox Daily Observations layout. Learn more.

38.89511, -77.03637

Hourly Observations for June 18, 2015

Temp ( °F °C ) Dew Point ( °F °C ) Humidity (%) Winds ( mph kmh ) Pressure ( in mb ) Visibility ( mi km ) Precip ( " mm )
12:41 am 00:41 Cloudy with Rain 73 23 70 21 89 89 NNW 3 6 30.03 1017 6 9.656064 0.05 1.27
12:52 am 00:52 Cloudy with Light Rain 75 24 70 21 83 83 Calm 30.03 1017 8 12.874752 0.06 1.524
1:52 am 01:52 Cloudy 75 24 70 21 83 83 SSW 7 11 30.06 1018 10 16.09344 0.03 0.762
2:16 am 02:16 Cloudy 73 23 70 21 89 89 SW 8 13 30.03 1017 10 16.09344 0 0
2:28 am 02:28 Cloudy 73 23 68 20 83 83 WSW 6 9 30.03 1017 10 16.09344 0 0
2:35 am 02:35 Cloudy 73 23 68 20 83 83 SW 6 9 30.03 1017 10 16.09344 0.001 0.001
2:52 am 02:52 Cloudy 73 23 70 21 89 89 SW 6 9 30.03 1017 10 16.09344 0.001 0.001
3:26 am 03:26 Cloudy with Heavy Rain 73 23 68 20 83 83 W 7 11 30.03 1017 2.5 4.02336 0.04 1.016
3:37 am 03:37 Cloudy with Rain 73 23 68 20 83 83 SW 5 7 30.03 1017 3 4.828032 0.06 1.524
3:52 am 03:52 Cloudy with Light Rain 73 23 70 21 89 89 S 5 7 30.03 1017 9 14.484096 0.08 2.032
4:52 am 04:52 Cloudy 73 23 68 20 83 83 S 9 15 30 1016 10 16.09344 0.001 0.001
5:52 am 05:52 Mostly Cloudy 73 23 68 20 83 83 SSW 6 9 30.03 1017 10 16.09344 0 0
6:52 am 06:52 Cloudy 73 23 68 20 83 83 SW 3 6 30.03 1017 10 16.09344 0 0
7:52 am 07:52 Mostly Cloudy 75 24 68 20 78 78 N 3 6 30.03 1017 10 16.09344 0 0
8:52 am 08:52 Cloudy 75 24 70 21 83 83 Calm 30.03 1017 10 16.09344 0 0
9:52 am 09:52 Cloudy 81 27 72 22 74 74 NNE 6 9 30.03 1017 10 16.09344 0 0
10:06 am 10:06 Cloudy 79 26 72 22 79 79 E 5 7 30.03 1017 10 16.09344 0 0
10:52 am 10:52 Cloudy 81 27 72 22 74 74 NNE 7 11 30.03 1017 10 16.09344 0 0
11:52 am 11:52 Cloudy 84 29 72 22 66 66 Calm 30.03 1017 10 16.09344 0 0
12:14 pm 12:14 Cloudy 84 29 73 23 70 70 SSE 6 9 30.03 1017 10 16.09344 0 0
12:52 pm 12:52 Cloudy 86 30 73 23 66 66 S 8 13 30 1016 10 16.09344 0 0
1:52 pm 13:52 Cloudy 84 29 73 23 70 70 S 12 19 30 1016 10 16.09344 0 0
2:52 pm 14:52 Mostly Cloudy 88 31 73 23 62 62 S 13 20 29.97 1015 10 16.09344 0 0
3:52 pm 15:52 Mostly Cloudy 90 32 73 23 59 59 S 13 20 29.94 1014 10 16.09344 0 0
4:24 pm 16:24 Cloudy 90 32 73 23 59 59 SSW 10 17 29.91 1013 10 16.09344 0 0
4:50 pm 16:50 Windy with Storms Likely 88 31 72 22 59 59 W 22 35 29.91 1013 2 3.218688 0 0
4:59 pm 16:59 Cloudy with Heavy Thunderstorms 81 27 68 20 66 66 SSW 14 22 29.91 1013 2 3.218688 0.06 1.524
5:05 pm 17:05 Cloudy with Thunderstorms 79 26 70 21 74 74 SW 14 22 29.94 1014 5 8.04672 0.13 3.302
5:11 pm 17:11 Windy with Storms Likely 81 27 70 21 70 70 N 20 31 29.97 1015 7 11.265408 0.14 3.556
5:17 pm 17:17 Cloudy with Light Thunderstorms 79 26 72 22 79 79 NNW 16 26 29.97 1015 6 9.656064 0.14 3.556
5:23 pm 17:23 Cloudy with Thunderstorms 79 26 72 22 79 79 NW 16 26 29.97 1015 2 3.218688 0.15 3.81
5:26 pm 17:26 Cloudy with Thunderstorms 77 25 72 22 83 83 WNW 6 9 29.97 1015 1 1.609344 0 0
5:35 pm 17:35 Cloudy with Light Thunderstorms 75 24 72 22 89 89 WSW 6 9 29.94 1014 7 11.265408 0.33 8.382
5:52 pm 17:52 Cloudy 79 26 70 21 74 74 N 3 6 29.94 1014 10 16.09344 0.35 8.89
6:21 pm 18:21 Cloudy 79 26 68 20 70 70 S 3 6 29.94 1014 10 16.09344 0 0
6:40 pm 18:40 Cloudy with Light Rain 77 25 70 21 79 79 SSE 6 9 29.94 1014 3 4.828032 0 0
6:52 pm 18:52 Cloudy with Light Rain 77 25 70 21 79 79 SE 7 11 29.94 1014 9 14.484096 0.06 1.524
7:21 pm 19:21 Cloudy with Light Rain 77 25 72 22 83 83 S 3 6 29.94 1014 10 16.09344 0.001 0.001
7:52 pm 19:52 Cloudy 77 25 72 22 83 83 SSW 6 9 29.91 1013 10 16.09344 0.001 0.001
8:52 pm 20:52 Mostly Cloudy 77 25 72 22 83 83 S 3 6 29.94 1014 10 16.09344 0.001 0.001
9:52 pm 21:52 Mostly Cloudy 77 25 72 22 83 83 Calm 29.94 1014 10 16.09344 0 0
10:23 pm 22:23 Mostly Cloudy 79 26 72 22 79 79 SE 5 7 29.94 1014 10 16.09344 0 0
10:52 pm 22:52 Mostly Cloudy 77 25 72 22 83 83 SSE 5 7 29.94 1014 10 16.09344 0 0
11:52 pm 23:52 Partly Cloudy 77 25 72 22 83 83 SSW 5 7 29.94 1014 10 16.09344 0 0

Powered by AerisWeather